Wind_Speed
72 72 72 72 71 71 70 70 71 71 71 71 72 73 73 74 75 75 75 75 76 76 76 76 76 76 76 76 76 76 77 77 77 78 78 78 77 77 75 73 73 74 73 73 72 72 72 72 71 71 71 70 70 69 67 65 64 63 60 56 52 49 44 40 40 38 36 35 33 33 31 28 24 22 20 19 19 19 21 21 22 22 23 23 23
75 75 75 75 74 74 73 73 73 74 74 73 74 75 75 75 76 77 77 77 78 77 77 77 77 78 78 78 79 79 79 79 78 78 78 78 78 76 74 74 74 74 74 73 73 72 72 72 72 72 71 70 69 67 65 64 64 61 58 54 51 47 42 39 39 37 35 33 32 32 31 27 23 22 20 20 20 21 22 23 23 23 24 24 24
77 77 77 77 77 77 76 76 76 76 76 76 76 77 77 78 78 78 79 79 79 79 79 79 80 80 80 81 81 81 81 80 79 79 79 78 77 75 74 75 75 75 74 74 74 73 73 72 72 72 71 70 68 65 65 64 62 59 56 53 50 45 41 39 39 37 34 32 31 30 29 27 24 22 20 20 21 22 23 24 24 24 25 25 25
79 79 79 79 79 79 79 79 79 79 79 79 79 79 80 80 80 81 81 81 81 81 81 81 81 81 81 82 82 82 81 80 80 80 79 77 75 75 76 76 76 75 75 75 75 74 73 73 72 72 70 68 66 64 64 63 60 58 54 51 48 45 41 40 38 36 34 31 30 29 28 27 24 22 21 21 22 23 24 25 26 26 26 26 26
80 81 81 82 82 82 81 81 82 81 81 81 81 82 82 82 82 83 83 83 83 83 83 83 82 82 82 83 83 82 81 81 81 80 79 76 75 77 78 78 77 76 76 76 76 75 73 72 71 70 68 67 65 64 64 61 58 55 53 49 47 44 41 40 38 35 33 31 30 28 27 26 24 22 21 22 23 24 26 26 27 27 27 27 27
83 83 84 84 83 83 84 84 83 83 83 84 84 84 84 84 84 85 85 84 84 84 84 83 81 82 83 83 83 82 82 81 81 80 78 75 77 79 79 79 78 77 77 76 76 75 72 71 70 68 67 66 64 64 62 59 56 53 51 48 45 44 41 40 38 35 33 31 29 27 26 26 24 23 22 23 24 25 27 28 28 28 28 28 27
85 86 86 85 84 85 86 85 85 85 86 86 86 86 86 85 85 86 85 84 84 84 83 82 81 81 82 83 83 83 82 81 81 81 78 77 80 81 80 79 78 78 78 77 76 74 72 71 69 68 67 65 64 63 60 57 54 51 49 47 45 43 41 39 37 34 32 31 29 27 26 25 24 24 24 24 25 26 28 29 29 29 29 29 28
87 86 87 84 83 84 84 85 87 88 88 88 87 87 87 86 86 85 85 84 83 83 82 80 80 81 82 83 83 83 82 82 82 80 79 81 83 81 80 80 80 79 78 77 76 74 72 70 69 67 65 64 63 61 58 55 53 50 48 46 44 42 40 38 36 34 32 30 29 26 25 25 24 25 26 26 26 27 29 30 30 30 30 30 29
89 87 87 82 81 83 83 87 89 89 89 88 88 87 87 86 86 85 84 83 82 82 81 80 81 82 82 83 83 82 82 83 81 79 81 85 84 81 80 80 79 78 77 77 75 73 71 70 68 66 64 63 62 59 55 53 52 50 48 47 44 42 39 36 35 33 31 30 28 26 25 25 24 26 28 28 27 28 29 31 31 31 31 30 29
90 89 87 83 83 83 82 87 90 89 89 88 88 88 87 87 87 86 85 84 83 82 82 83 84 83 83 83 83 82 83 82 79 81 85 85 82 79 79 79 78 77 78 77 73 71 70 68 66 64 62 62 59 56 53 52 51 50 49 47 43 41 38 35 34 32 31 29 28 26 25 24 24 27 29 29 29 29 30 31 32 33 32 31 30
91 90 88 86 87 86 86 89 91 90 89 88 89 88 88 89 89 88 86 86 85 84 85 84 84 84 84 83 83 83 83 82 81 84 86 82 79 78 78 78 78 79 78 74 71 70 69 66 64 63 61 59 57 54 52 52 52 51 50 46 43 40 36 34 33 32 30 29 27 25 24 24 25 28 30 30 29 29 31 32 33 34 33 32 31
92 91 90 89 89 89 90 91 91 90 89 90 90 88 88 89 89 89 88 86 86 86 85 85 84 84 84 85 84 84 83 83 83 84 84 80 79 81 81 81 80 79 76 74 72 70 66 64 63 62 59 57 54 52 51 51 51 51 48 45 41 37 35 33 32 31 30 28 26 25 24 24 26 29 31 31 31 30 32 33 34 35 34 33 32
94 93 92 91 91 91 91 91 91 90 90 91 91 90 89 90 90 89 88 88 88 87 86 86 86 85 86 86 84 83 84 85 84 83 80 80 84 86 86 84 81 78 75 73 71 67 64 62 61 60 58 54 52 50 50 50 49 48 45 42 39 35 34 33 32 31 30 28 25 25 25 25 27 29 32 33 33 32 33 34 35 36 35 34 33
95 94 92 91 91 91 91 90 91 91 91 91 91 91 90 90 90 89 89 89 88 87 87 86 84 85 85 84 83 84 86 86 84 82 80 84 88 87 86 84 79 76 73 71 68 66 62 60 59 58 55 52 49 48 49 48 47 45 42 40 36 34 34 33 32 31 30 27 25 25 26 26 27 30 32 33 34 34 34 35 36 37 36 35 34
95 94 93 92 92 92 91 90 90 91 92 91 91 91 91 91 90 90 90 90 89 87 86 83 83 84 83 83 85 87 88 86 84 84 84 87 87 84 82 79 74 72 70 67 64 62 60 59 57 55 52 49 47 47 48 46 45 43 40 38 35 34 33 32 32 31 30 28 26 26 27 28 28 30 32 33 35 36 36 36 37 38 38 36 35
95 95 94 94 94 93 92 91 91 92 92 92 92 92 92 92 91 91 90 90 90 88 85 84 85 84 83 86 88 89 87 86 85 85 84 84 82 79 77 74 71 69 66 63 61 60 59 57 54 52 50 46 45 45 45 43 42 41 38 36 35 34 33 32 31 31 31 28 26 26 27 29 30 30 32 35 36 37 38 37 38 38 38 38 36
95 94 95 95 94 93 92 92 91 92 92 92 93 93 93 94 93 93 92 92 92 89 86 86 88 86 87 89 89 88 87 85 82 80 78 77 76 72 70 69 68 66 63 61 60 59 57 55 51 48 47 44 43 43 42 41 41 39 37 35 35 34 33 32 32 31 31 29 27 27 28 31 32 31 32 35 38 38 38 38 38 39 39 39 37
96 95 95 96 95 94 95 93 92 92 93 93 94 94 94 95 95 94 94 92 89 87 86 87 89 88 88 88 86 86 84 78 74 74 72 70 69 68 69 68 66 64 62 60 58 56 54 52 49 46 44 42 41 41 39 38 38 36 35 35 35 35 33 33 33 31 31 29 27 27 28 31 34 34 32 34 38 39 39 39 38 38 38 38 38
95 97 97 97 97 97 96 95 95 95 95 95 96 96 95 95 95 95 92 87 85 85 87 89 88 87 86 84 82 81 76 69 67 69 68 68 69 70 70 68 66 65 63 60 55 53 50 48 46 44 42 40 39 38 37 36 35 34 35 36 35 35 34 33 33 31 29 28 27 28 29 31 34 36 35 33 36 40 40 39 38 38 38 38 38
97 99 100 99 99 98 98 97 98 98 98 97 97 98 96 95 94 92 88 84 83 85 85 86 86 85 83 80 76 70 64 60 58 62 65 67 69 68 67 66 66 65 62 58 53 49 47 45 43 42 40 38 36 35 35 33 32 32 35 36 35 34 33 33 33 30 28 28 28 30 31 32 34 37 38 35 34 39 41 40 38 38 37 37 38
101 102 101 100 100 99 99 99 98 98 98 98 98 97 93 91 89 85 82 79 78 80 81 82 82 81 78 74 68 58 55 57 56 59 63 65 67 67 67 67 65 63 59 56 52 47 44 43 41 41 39 36 35 34 33 31 29 31 34 35 35 34 33 32 32 29 27 29 30 31 32 32 34 37 39 36 34 37 41 41 39 38 38 37 37
103 102 101 100 100 99 99 98 97 97 97 97 96 93 89 87 84 80 79 78 77 78 79 80 79 78 75 71 65 60 59 57 53 56 60 63 68 69 68 66 64 60 57 54 51 47 44 42 41 40 38 35 34 33 33 31 29 30 33 35 34 33 33 32 32 30 27 29 32 32 33 33 33 36 39 37 34 36 40 41 39 38 38 37 37
102 101 100 99 97 96 96 95 95 94 94 94 92 90 87 86 84 82 81 81 80 79 78 78 77 75 73 69 65 62 57 52 52 58 63 65 67 67 65 63 61 58 56 53 50 47 44 41 40 38 35 34 33 34 34 32 31 31 33 33 33 33 34 33 31 30 28 30 32 32 33 33 33 35 38 38 36 36 38 41 40 37 37 36 36
99 98 96 95 93 91 90 90 90 90 90 90 89 87 85 84 83 82 81 80 79 78 77 76 75 72 68 65 64 59 54 57 63 67 67 67 66 65 63 60 57 56 55 52 49 46 43 40 38 36 33 33 33 34 35 33 32 32 32 32 31 33 35 34 31 30 29 29 31 33 33 33 33 34 36 38 39 38 38 41 41 39 37 36 35
95 92 91 90 88 87 86 85 85 85 86 86 85 83 82 81 81 79 78 77 77 76 75 73 72 69 66 63 63 62 61 65 68 67 67 66 65 62 58 56 55 54 54 51 47 44 42 39 37 36 34 34 34 35 35 33 32 32 33 32 31 33 35 34 31 29 29 29 29 32 34 33 33 34 35 37 40 41 40 41 43 42 39 37 35
90 88 86 85 84 83 82 81 81 81 82 82 81 80 79 79 78 77 77 76 75 74 73 72 70 68 67 65 64 65 66 68 68 67 66 65 62 59 57 56 55 54 52 48 43 41 40 38 37 36 34 35 36 36 35 33 33 33 33 32 31 34 35 33 31 29 28 29 28 31 33 33 33 34 35 36 39 42 42 42 43 43 41 39 35
85 84 84 83 82 81 80 79 79 79 79 78 78 78 78 77 77 77 76 75 75 74 72 70 69 68 68 67 66 67 68 70 70 68 66 64 62 59 57 56 54 51 47 42 37 36 37 37 36 36 35 36 37 37 36 33 34 35 34 32 31 34 35 33 31 29 28 28 29 29 31 33 33 34 35 35 37 40 43 44 44 44 44 42 38
83 83 83 82 81 80 79 78 78 78 77 77 77 77 77 77 77 77 76 76 74 72 70 69 69 68 68 68 68 70 70 70 70 67 65 63 60 57 55 53 51 47 42 38 33 33 34 36 37 37 36 37 37 37 35 34 36 38 37 34 34 35 35 32 31 28 27 28 29 28 29 32 33 33 34 35 36 38 41 45 46 46 46 44 41
82 83 82 81 80 79 78 78 77 77 77 77 77 78 78 78 78 77 77 77 75 73 71 72 71 71 70 69 68 68 67 67 67 65 62 58 56 54 52 50 47 41 38 36 32 32 34 36 39 40 38 38 38 36 34 34 36 39 39 36 34 36 34 32 31 28 26 27 29 28 28 31 33 33 34 35 36 38 40 44 46 47 46 45 43
83 83 81 80 80 80 79 79 78 78 78 78 78 79 79 79 78 78 78 77 77 75 74 74 74 73 71 68 65 60 61 65 64 61 58 55 53 51 47 45 41 36 35 34 30 31 33 36 39 40 39 38 38 36 34 35 37 39 40 38 35 36 34 31 30 27 26 27 29 29 30 32 32 32 33 34 36 38 40 42 45 46 46 46 44
84 83 82 81 81 81 81 80 80 80 80 79 79 80 80 80 79 79 78 78 77 76 75 74 73 72 70 67 63 58 61 64 61 57 53 49 49 46 40 39 37 33 32 32 31 31 31 33 37 39 39 39 38 36 34 36 37 39 40 39 37 37 34 31 29 26 27 29 29 30 31 32 32 31 33 34 36 38 39 41 43 44 45 46 45
84 84 83 82 82 82 81 81 81 81 80 80 80 80 80 80 79 78 78 77 76 74 73 72 70 69 67 64 62 59 60 59 55 52 48 44 44 40 36 34 33 31 30 30 32 32 31 31 34 37 39 40 38 36 35 37 38 38 39 39 37 37 35 32 30 30 30 30 30 31 32 33 32 31 32 34 36 38 38 39 41 44 45 46 45
84 83 83 82 82 82 81 81 81 81 80 80 79 79 79 79 78 77 76 75 73 71 70 68 66 65 62 60 58 57 55 53 50 47 43 41 39 35 34 32 32 32 30 29 31 31 31 31 31 34 36 38 38 37 37 38 39 38 38 38 37 36 35 33 31 31 30 30 30 31 31 32 32 32 33 34 35 36 36 37 39 43 45 45 46
82 82 81 81 80 80 80 79 79 79 79 79 78 77 76 75 74 73 71 70 68 66 64 63 61 59 57 55 54 52 50 48 45 41 38 36 33 31 31 31 32 33 29 29 31 30 29 27 29 32 34 37 38 38 38 39 40 39 37 36 35 34 33 33 31 30 29 28 28 29 30 31 31 32 33 34 35 35 34 34 36 40 43 45 47
78 78 78 78 78 78 78 78 78 77 77 76 74 73 71 70 68 66 65 64 62 60 58 57 55 53 52 50 49 47 46 44 40 36 33 31 29 28 29 31 31 31 30 31 30 27 26 25 26 29 32 35 37 39 40 40 40 41 39 36 34 33 33 34 33 31 30 27 25 26 28 30 31 32 33 34 34 34 32 31 33 36 40 44 46
74 75 75 75 76 76 76 75 75 74 73 71 68 66 64 62 61 59 58 57 55 53 52 51 50 48 47 46 45 43 41 39 36 32 29 28 26 26 29 30 30 32 33 32 30 28 27 27 29 30 30 32 35 37 38 37 38 40 40 38 36 34 34 35 35 34 32 29 27 26 26 27 29 32 34 34 34 33 31 30 30 33 37 41 44
71 72 72 72 72 72 71 70 69 68 66 64 61 59 56 55 53 52 51 50 49 48 47 46 45 44 42 41 40 38 36 34 32 29 27 26 25 27 29 29 30 33 33 32 31 31 30 28 30 31 30 30 32 34 35 35 34 36 38 37 37 36 35 36 36 37 36 33 30 28 26 25 25 28 30 31 32 32 30 29 29 30 34 38 41
66 66 66 66 66 65 64 62 61 59 58 56 53 51 49 47 46 45 45 44 44 43 42 41 40 39 38 37 35 33 32 31 29 27 26 25 26 28 28 28 29 32 33 31 33 33 29 27 27 28 29 29 29 31 34 34 32 33 35 34 34 35 37 37 38 40 40 37 33 30 27 26 25 25 26 28 30 31 31 30 30 31 33 36 40
59 59 58 58 58 57 55 53 52 51 49 48 45 43 42 41 40 40 40 40 39 39 38 37 36 35 33 32 30 30 29 28 27 26 26 26 28 29 28 27 28 32 32 29 32 33 28 28 27 24 27 29 28 28 30 32 32 31 32 32 32 33 35 37 37 38 40 39 35 32 30 28 26 26 27 29 31 31 31 30 31 31 33 35 38
51 51 50 49 49 48 45 44 43 42 42 40 39 37 36 36 36 37 36 36 35 35 34 34 33 31 30 28 27 27 27 27 26 27 27 27 28 30 30 31 31 34 33 30 32 33 32 33 30 25 27 29 29 28 27 28 31 30 29 30 31 32 33 34 34 36 39 40 37 35 34 32 29 28 28 31 32 32 30 30 31 32 32 34 37
44 43 42 41 40 39 37 36 35 36 36 35 34 33 33 33 33 33 33 33 32 32 31 31 30 28 27 26 26 26 26 26 26 27 28 28 29 30 32 33 33 33 34 33 32 34 36 38 34 28 28 31 31 30 28 28 30 31 30 30 32 32 32 33 35 36 38 40 39 37 36 36 34 33 33 35 35 34 32 32 31 31 31 33 35
38 37 36 34 33 32 31 30 30 31 32 32 31 31 30 30 30 30 30 30 30 30 29 29 28 27 26 25 24 24 24 25 26 27 28 29 30 31 32 33 33 33 34 35 34 35 38 39 36 31 29 33 34 32 31 30 31 32 32 33 33 33 34 35 36 37 37 39 41 38 37 38 39 39 39 40 40 38 36 35 33 32 31 31 33
34 33 32 29 27 27 27 27 27 28 28 29 29 29 28 28 28 28 28 28 28 28 28 28 27 26 25 24 23 23 23 24 25 26 28 29 31 32 33 34 34 34 34 35 36 36 38 38 36 32 30 33 35 34 34 34 33 34 34 34 35 35 36 37 37 38 37 38 40 39 38 39 41 42 42 43 42 39 38 37 36 34 33 32 31
32 29 27 25 24 25 26 26 25 26 26 26 26 26 27 27 27 26 25 25 26 26 27 26 26 25 23 22 22 22 23 23 25 26 28 30 31 32 34 35 35 35 34 35 38 39 39 40 38 35 33 34 35 35 36 37 37 36 36 36 37 37 38 39 38 38 38 37 38 40 39 39 40 42 43 43 42 40 39 38 37 37 36 35 33
29 26 24 22 22 24 25 25 25 25 25 25 24 24 25 25 25 24 23 23 23 24 24 24 24 23 22 22 22 23 23 24 25 27 28 30 32 33 34 35 36 36 35 35 39 42 42 42 41 39 36 37 37 36 37 40 40 39 39 39 40 39 39 40 39 38 39 37 37 40 40 40 40 41 42 43 42 40 40 39 38 38 38 38 37
29 25 23 21 22 23 25 26 24 24 24 23 23 23 24 24 23 23 23 22 22 23 23 23 23 23 23 23 23 24 25 26 27 28 29 31 33 34 35 35 36 36 35 35 38 43 45 45 45 43 40 40 41 39 39 41 41 41 42 44 44 42 41 41 39 38 39 39 38 39 41 42 42 43 44 44 44 42 41 40 39 39 40 40 40
31 28 25 24 24 24 26 26 25 23 24 23 23 24 24 23 23 23 24 23 23 24 24 24 24 24 24 24 25 25 26 27 28 29 30 32 34 34 35 35 35 35 35 34 37 43 48 48 47 46 44 43 43 41 41 42 43 41 43 46 47 45 43 42 41 40 40 40 41 41 43 45 45 46 46 46 44 43 43 42 40 41 43 42 42
34 32 29 28 28 27 27 28 26 25 24 24 24 25 24 24 24 25 25 25 26 26 26 25 26 25 25 25 26 26 27 28 29 30 30 32 34 35 35 35 35 34 35 34 35 41 47 49 49 49 47 46 46 44 42 43 43 42 43 46 48 47 47 45 42 41 41 41 42 44 45 47 48 49 49 48 46 44 44 43 42 41 42 41 39
38 36 34 32 32 32 30 29 29 28 26 25 26 26 26 25 26 26 26 27 28 28 28 27 27 27 27 27 27 27 28 29 30 30 31 33 34 35 35 35 35 35 35 35 35 38 45 49 50 50 50 50 49 47 45 45 45 44 43 45 46 47 47 47 45 43 42 43 43 45 46 47 48 48 49 50 50 47 46 45 43 42 41 40 38
42 40 37 36 36 36 34 33 32 32 30 29 29 29 28 28 29 29 29 29 29 29 29 29 29 29 29 29 28 28 28 29 30 31 32 33 35 35 36 35 35 36 36 36 36 37 41 47 50 51 51 53 53 51 48 46 46 46 45 45 46 46 45 45 45 45 45 45 45 46 46 47 46 47 48 50 50 49 48 47 45 44 43 42 42
45 43 41 39 39 39 38 37 36 35 34 32 32 32 32 32 33 33 33 32 32 32 31 31 30 30 30 30 30 30 29 29 30 32 32 33 35 36 36 36 36 36 36 36 37 38 40 44 49 52 53 54 56 56 53 50 49 50 49 47 46 48 47 44 43 44 46 47 48 48 48 48 48 48 48 49 49 48 47 47 46 45 46 46 45
Wind_Direction
280 281 282 282 283 284 285 285 286 287 287 288 289 289 290 291 291 292 292 293 293 294 294 295 296 296 296 297 297 297 298 298 299 300 301 302 303 304 305 305 306 307 308 309 309 309 309 309 310 310 311 311 311 312 312 312 312 312 310 308 310 310 307 306 306 306 303 301 298 295 291 288 283 280 275 265 258 251 246 242 237 232 224 220 220
279 280 281 281 282 283 284 284 285 286 287 287 288 289 289 290 290 291 291 292 292 293 294 294 295 295 295 295 295 296 297 298 298 300 301 302 303 304 304 304 306 307 307 308 308 309 309 309 309 309 310 310 311 311 310 311 311 311 308 306 309 308 305 305 304 303 301 299 296 292 288 284 279 277 270 259 252 246 242 239 235 231 225 222 222
278 279 279 280 281 282 283 283 284 285 286 287 288 288 289 289 290 290 290 291 291 292 293 293 294 294 294 294 294 295 297 298 298 300 301 302 303 304 304 305 305 306 307 307 308 308 308 308 308 308 309 309 310 309 309 310 310 309 306 305 308 305 303 304 303 301 299 297 293 289 284 280 276 273 265 254 248 242 239 236 234 230 225 223 224
276 277 278 279 280 281 282 283 284 285 286 286 287 288 288 289 289 290 290 290 291 291 292 292 293 293 293 294 294 296 297 298 299 300 301 302 303 304 304 305 305 306 306 306 307 307 307 307 307 307 308 309 309 308 309 310 309 306 304 305 307 303 302 303 301 299 297 294 291 286 280 275 272 269 261 251 243 238 236 235 233 230 226 224 225
275 276 277 278 280 281 282 283 284 284 285 286 286 287 287 288 288 289 289 290 290 291 291 291 292 292 293 295 295 296 297 299 299 300 302 302 303 303 304 304 304 305 305 305 306 306 306 306 307 307 307 308 307 307 308 308 307 303 302 305 305 301 301 302 300 297 295 292 288 284 277 271 268 264 257 248 241 235 234 234 233 230 227 225 227
275 276 277 278 280 281 282 283 283 283 284 285 285 286 287 287 288 289 289 289 290 291 291 291 292 292 293 296 296 297 299 300 300 301 302 301 302 303 303 303 303 304 304 304 305 305 305 305 306 306 307 307 306 307 307 307 304 300 301 304 303 300 301 300 297 295 293 290 286 281 273 267 264 260 253 245 239 233 232 233 233 231 228 227 228
276 276 277 279 280 281 282 282 283 283 284 285 285 286 287 287 288 288 289 289 290 291 291 291 292 293 295 296 297 298 299 300 300 300 300 300 301 302 302 302 303 303 303 303 304 304 304 305 305 305 306 306 305 306 306 305 301 298 300 304 301 298 299 298 294 293 291 286 283 277 270 264 259 254 249 243 237 232 230 231 232 231 229 229 229
276 277 278 279 280 282 282 283 283 284 285 285 286 287 287 288 288 289 289 289 290 291 291 291 293 295 295 296 297 298 298 299 298 298 298 299 300 300 300 301 301 302 302 303 303 303 304 304 304 304 304 304 305 305 305 302 298 295 299 303 299 297 298 294 291 291 288 283 279 274 267 262 254 247 245 241 236 232 229 230 230 231 230 230 231
277 277 278 279 280 281 281 282 284 284 285 286 287 287 288 288 289 289 289 290 291 292 291 291 294 295 295 296 296 297 297 297 296 296 297 298 297 298 299 300 301 301 302 303 303 302 303 304 303 303 303 304 304 304 302 300 296 294 298 302 297 296 295 290 289 288 285 280 276 271 265 261 252 242 242 240 236 232 229 229 229 230 230 231 232
277 277 278 280 281 281 280 282 283 284 285 286 287 287 288 289 289 289 289 290 291 291 291 292 294 294 294 295 295 295 295 295 295 296 297 297 296 297 299 299 300 300 301 302 302 302 303 303 302 302 302 303 303 302 300 297 294 293 297 299 295 294 292 287 287 286 282 276 272 269 264 260 249 240 240 240 236 232 229 229 229 229 230 230 232
277 278 279 279 280 280 280 282 283 284 285 286 286 287 288 288 288 289 289 290 290 290 291 292 293 293 293 294 294 294 294 295 295 296 297 297 296 297 299 299 299 300 301 301 300 301 302 301 300 301 301 302 301 299 297 294 292 292 296 296 292 291 288 284 284 282 278 272 268 266 262 258 246 238 238 239 237 233 230 229 229 229 230 230 232
278 279 279 279 279 280 281 282 283 284 285 285 286 287 287 287 288 288 289 289 290 290 291 291 292 292 293 292 292 293 293 294 295 295 295 295 296 297 298 298 298 299 299 299 299 300 300 299 299 299 300 299 298 296 294 292 291 291 294 293 289 287 283 281 280 277 274 268 264 262 260 255 244 236 236 238 237 234 231 229 229 228 229 230 231
278 278 279 279 279 280 281 282 283 284 284 285 286 286 286 286 287 288 288 289 289 290 290 291 291 291 292 291 291 292 293 294 295 294 293 293 295 296 297 297 297 297 298 298 298 298 298 298 297 297 298 297 295 293 291 291 291 291 292 290 286 283 279 277 275 272 269 263 259 258 257 252 242 236 234 235 236 234 232 230 229 228 228 230 231
276 277 278 278 279 279 280 281 282 283 283 284 285 285 285 286 286 287 288 288 289 290 290 290 290 291 291 290 291 292 292 293 294 293 291 292 294 295 296 296 296 296 296 296 296 296 297 296 296 296 295 294 292 290 289 290 289 289 289 285 282 279 276 273 271 268 264 258 253 253 253 249 240 234 234 234 235 234 233 231 229 228 228 229 231
275 276 277 277 278 279 280 281 281 282 283 283 284 284 285 285 286 287 287 288 289 290 290 289 290 291 290 289 291 292 292 293 292 291 290 292 294 295 296 296 295 295 295 295 295 295 295 295 295 294 293 291 289 288 288 288 287 287 285 281 277 274 272 269 267 263 260 254 248 249 247 246 240 233 233 233 234 234 233 232 231 229 228 229 230
275 276 276 277 278 278 279 280 281 282 282 283 284 284 285 285 286 287 288 288 289 289 289 288 289 289 288 289 291 291 292 292 292 291 291 292 294 296 296 296 296 295 295 295 295 294 295 295 294 293 291 289 287 286 286 286 285 283 280 276 272 270 268 265 262 258 256 251 245 245 243 242 240 233 231 232 233 233 233 233 232 231 230 230 230
275 276 276 277 278 278 279 280 281 282 282 283 284 284 285 285 286 287 288 288 289 288 287 286 287 288 288 289 290 290 291 292 292 291 292 293 294 295 295 296 296 295 295 295 295 294 294 294 293 291 288 286 285 284 284 284 282 279 274 270 267 265 263 261 257 252 251 248 243 242 238 238 239 236 231 230 231 233 234 234 234 233 232 232 232
276 276 277 277 278 279 280 281 281 282 282 283 284 284 285 286 286 287 287 288 287 286 285 286 287 287 288 289 289 290 291 291 292 292 293 294 293 293 294 295 295 295 296 295 295 294 294 293 291 288 286 284 283 282 282 280 277 273 268 265 263 262 259 256 253 248 247 246 242 241 236 234 236 238 235 230 229 232 234 235 235 235 234 234 234
276 276 277 278 279 280 280 281 281 282 282 283 283 284 284 285 285 286 286 285 285 285 284 285 286 286 287 288 289 290 290 290 291 292 292 291 290 290 291 292 294 295 295 294 294 293 292 291 289 287 284 282 281 279 278 275 272 268 263 261 260 257 254 252 249 243 242 243 239 238 236 233 233 235 238 234 229 230 233 235 237 237 237 237 236
275 276 277 278 279 280 280 281 281 282 282 282 282 283 284 284 285 285 284 283 284 284 284 285 285 286 287 287 288 289 290 291 289 288 289 289 288 288 290 291 292 293 293 292 292 291 290 289 286 284 282 280 278 275 273 269 266 264 261 259 256 252 250 249 246 239 238 241 238 236 235 234 232 233 237 237 232 230 231 235 238 239 240 240 241
275 276 277 278 279 280 280 281 281 281 281 281 282 282 282 283 283 283 282 283 283 283 284 285 285 286 286 286 286 285 286 288 285 284 285 285 286 288 290 290 291 292 291 291 290 289 288 286 283 281 280 277 273 270 266 262 262 262 258 255 251 248 246 244 244 239 235 239 238 235 235 234 233 233 237 238 233 230 231 235 238 240 242 243 245
276 276 277 278 279 279 280 280 280 280 280 280 280 281 281 281 281 281 281 282 282 283 284 284 285 285 285 285 283 283 284 283 281 280 281 282 285 287 288 289 291 291 290 290 289 288 286 283 281 279 276 272 269 264 259 257 260 260 254 250 246 243 242 240 239 238 235 238 238 236 235 234 233 233 236 238 235 230 230 234 238 241 243 245 246
276 276 277 278 278 279 279 279 279 279 279 279 280 280 280 280 280 281 281 282 282 282 282 283 284 284 284 284 283 284 283 278 277 279 281 282 284 286 288 290 290 290 290 289 288 287 285 282 279 277 273 269 265 260 256 256 259 257 249 244 240 238 240 238 236 237 237 239 239 237 235 234 233 233 234 236 237 233 230 231 236 239 242 244 247
276 277 277 278 278 278 278 278 278 279 279 279 280 280 281 281 281 281 281 282 282 282 282 283 283 283 284 284 284 284 281 279 280 282 283 284 285 288 290 290 290 290 289 288 287 285 283 280 276 273 269 266 263 257 254 256 256 251 242 236 236 238 240 237 234 236 239 241 239 236 234 233 232 232 232 233 234 234 231 231 234 237 240 242 245
276 277 277 277 277 277 277 277 277 278 279 279 280 281 281 282 282 282 282 282 282 282 282 282 282 283 283 283 284 284 283 282 283 284 285 286 288 289 290 291 291 290 288 287 285 282 280 277 272 269 265 262 260 255 254 254 250 244 235 229 231 237 240 237 233 236 241 243 242 238 235 232 230 231 232 233 233 233 232 231 233 236 238 241 243
276 276 276 276 276 276 276 276 277 277 278 279 280 281 281 281 281 281 282 282 282 282 282 282 282 282 283 284 284 284 284 284 284 285 287 288 289 289 290 290 289 289 288 284 282 280 276 272 269 266 262 259 257 255 253 249 243 236 228 226 230 236 237 235 234 236 242 246 246 243 238 233 231 232 233 233 233 232 232 231 232 234 237 239 241
275 276 275 275 275 275 275 276 277 277 278 279 280 280 280 280 280 281 281 281 282 282 281 281 281 282 283 283 284 285 285 285 286 287 288 289 289 289 289 288 288 288 285 279 277 278 274 268 265 261 258 257 256 254 251 244 238 230 222 223 232 237 237 235 234 237 244 248 248 246 240 235 233 234 235 235 233 231 232 231 231 232 234 236 237
274 274 274 274 274 275 275 276 277 277 277 278 278 278 279 279 280 280 280 280 281 281 280 280 281 281 282 283 284 285 286 287 287 288 289 289 289 289 288 287 287 285 280 275 272 271 268 263 261 259 256 254 254 252 247 239 235 228 219 221 230 235 236 234 235 237 244 250 250 247 241 238 237 237 237 236 233 231 230 231 232 232 233 234 235
272 272 273 273 274 275 275 276 276 276 276 277 277 277 278 278 278 279 279 279 279 279 279 280 280 281 281 282 284 286 287 286 286 287 288 287 287 287 287 287 285 280 276 273 269 264 259 258 258 258 256 253 252 249 244 236 234 229 220 219 226 232 233 233 235 237 242 250 253 248 241 238 239 239 239 238 234 231 229 229 231 233 234 235 236
271 271 272 273 274 275 275 275 275 275 275 276 276 276 277 277 277 278 278 278 278 279 279 280 281 281 282 283 284 284 283 282 283 284 284 285 285 285 285 285 281 277 271 267 264 262 257 254 254 255 254 252 249 246 242 235 231 230 222 218 223 228 231 235 234 236 244 251 254 252 245 239 238 240 242 240 237 233 230 228 228 231 232 234 236
271 272 273 273 273 274 274 274 274 274 274 275 275 275 276 276 276 277 277 278 278 279 280 280 281 282 282 282 281 278 276 277 279 279 280 282 283 282 281 280 277 272 265 260 260 262 258 250 250 252 251 250 246 241 241 237 231 229 224 219 222 225 228 234 237 242 249 250 252 253 246 240 238 240 242 242 240 236 233 229 227 229 231 232 234
271 272 272 272 272 272 272 273 273 274 274 274 274 274 275 275 276 276 277 277 278 279 280 280 281 281 281 280 279 276 274 275 275 275 275 274 274 274 273 273 272 264 258 257 257 260 260 253 251 250 248 247 241 235 237 238 233 230 226 222 225 227 225 230 238 245 247 248 251 250 243 239 238 240 242 242 240 238 235 231 227 228 230 231 233
271 271 271 271 271 271 272 272 272 273 273 274 274 274 275 275 276 277 277 278 278 279 279 279 279 279 279 277 276 274 273 273 272 272 271 268 266 266 264 263 259 253 252 253 251 254 261 260 256 250 247 245 238 231 233 237 234 230 228 226 226 229 229 229 233 239 244 250 254 248 240 238 238 239 241 241 240 239 237 232 228 228 229 230 231
270 271 271 271 271 271 271 271 272 272 273 273 274 275 276 276 277 277 277 278 278 278 278 278 277 276 275 274 273 272 271 270 270 269 267 265 262 256 253 251 248 245 243 243 243 248 256 259 258 252 245 243 239 231 230 235 235 230 227 227 226 227 230 232 233 236 245 254 256 248 240 238 238 238 240 241 240 239 237 234 231 230 230 230 231
269 269 270 270 270 270 271 271 271 272 273 274 274 275 276 277 277 277 277 277 276 276 275 274 273 273 272 271 270 269 268 268 267 266 263 259 254 246 240 241 240 237 233 234 237 243 249 250 250 248 243 241 239 234 231 232 235 232 227 226 226 226 227 232 237 238 241 249 254 251 246 241 239 239 240 241 240 239 238 237 236 233 231 231 232
268 268 269 269 270 271 271 272 272 273 273 274 275 275 275 276 276 275 275 274 274 273 272 271 270 269 268 267 267 266 266 266 265 261 258 252 246 238 232 234 233 230 229 230 231 236 244 246 245 244 243 240 236 235 232 230 233 233 229 227 228 229 227 229 236 240 241 243 248 251 252 247 242 240 240 239 239 239 239 240 240 239 235 234 234
269 269 270 270 270 271 272 273 273 273 274 274 274 274 274 273 273 272 271 271 270 269 268 268 267 266 266 265 264 263 262 262 260 256 250 245 238 231 228 228 228 227 227 228 228 232 241 248 249 245 241 237 231 232 231 227 229 229 227 228 229 231 230 228 231 236 240 242 242 243 247 248 245 241 240 240 239 238 239 239 240 240 239 237 237
269 269 270 271 271 271 272 273 273 273 273 273 273 272 271 270 269 269 268 267 267 266 266 265 265 264 264 263 262 260 258 256 255 251 244 237 232 227 224 224 227 226 225 225 224 228 238 245 247 244 237 232 225 227 231 228 229 229 226 227 229 232 232 230 230 232 235 238 238 237 238 241 241 239 239 239 239 238 237 237 238 239 238 238 238
269 269 270 271 271 271 271 271 272 272 272 271 270 269 268 267 266 265 265 264 264 264 264 264 263 263 261 260 258 256 253 251 249 247 241 234 228 224 219 220 226 227 225 221 218 222 232 237 240 239 234 227 217 221 230 228 227 228 226 227 230 234 236 236 235 233 231 232 235 236 234 232 233 236 239 239 239 239 238 238 238 238 239 239 239
270 270 270 271 271 271 270 269 269 268 268 268 267 265 264 262 262 261 262 262 263 263 264 263 262 261 258 255 253 250 248 246 244 242 239 233 228 223 217 215 221 225 225 221 214 216 225 231 234 234 229 220 211 215 225 225 223 224 224 226 229 233 238 240 240 237 233 230 232 234 233 228 226 230 236 239 239 239 240 240 240 240 241 242 242
270 271 270 270 270 270 269 267 265 264 263 263 262 261 260 259 258 259 259 260 261 262 262 261 259 257 254 251 248 246 244 243 241 239 237 233 228 224 219 216 219 223 225 221 214 213 221 228 229 229 222 211 206 210 216 218 220 223 225 225 228 230 235 240 241 239 236 232 231 232 232 228 224 225 232 236 237 236 237 238 240 241 243 244 244
270 270 269 269 270 270 267 264 262 260 259 258 258 257 257 257 257 258 259 260 260 259 258 257 254 252 249 247 244 242 241 241 240 238 236 233 229 225 222 219 218 221 224 221 214 211 218 224 224 222 214 205 205 208 209 211 214 220 223 225 227 229 233 237 238 237 235 234 232 230 232 231 227 230 236 239 238 238 238 238 237 238 241 243 244
270 270 270 270 270 268 266 262 260 258 257 257 256 256 256 256 257 257 257 258 257 256 254 253 250 248 245 243 241 239 238 239 240 239 236 233 229 226 223 221 219 220 222 221 215 211 216 219 216 213 210 207 210 213 212 212 214 217 218 221 226 230 234 237 237 236 233 232 232 230 232 233 231 234 238 239 240 242 242 243 241 237 238 241 243
271 273 274 273 270 268 266 264 261 260 258 257 257 257 257 257 257 257 256 255 254 252 251 249 248 246 243 240 237 235 235 238 241 241 238 233 230 227 224 222 219 218 219 220 216 212 213 215 211 209 212 213 216 220 220 219 219 220 218 220 225 229 234 238 238 238 234 231 231 232 233 233 233 235 237 238 240 241 241 245 246 241 237 239 241
274 277 278 275 272 270 269 267 265 264 262 261 260 258 256 256 257 257 256 254 251 250 248 247 246 245 242 240 237 235 235 237 241 242 240 235 231 229 226 223 220 218 218 218 217 213 212 214 211 211 214 215 216 221 224 224 224 223 221 222 226 229 233 237 239 240 238 235 232 232 234 233 234 237 239 239 239 239 240 243 246 242 236 237 240
274 276 276 275 273 273 272 270 268 267 266 264 263 260 256 255 255 256 255 254 252 250 248 246 245 244 243 242 240 238 237 238 241 243 242 237 232 230 228 226 223 219 218 218 217 213 211 213 213 214 215 214 215 221 226 228 225 224 224 225 226 229 232 235 239 241 242 240 235 233 233 232 235 238 239 239 239 241 242 243 244 242 238 240 242
273 273 272 271 271 271 272 271 270 269 267 265 263 261 258 256 255 255 255 254 253 252 250 248 247 246 245 244 243 241 240 241 243 244 242 238 234 232 231 229 227 223 220 220 218 214 213 214 214 216 216 213 214 222 227 229 228 227 228 228 228 229 233 235 238 240 243 243 240 235 234 234 235 238 239 238 239 243 245 244 244 243 241 244 247
271 271 270 269 268 268 268 270 272 270 268 266 264 261 259 256 256 256 256 254 253 253 253 251 249 247 246 246 245 243 243 244 244 244 242 237 234 233 233 232 230 227 224 222 221 217 217 218 216 216 217 214 214 220 226 229 230 229 229 231 231 230 233 235 236 238 240 242 243 239 236 236 237 239 240 240 241 244 246 245 244 243 242 244 247
268 269 268 269 269 268 267 269 270 270 269 269 267 264 261 258 258 258 258 255 253 252 252 252 251 249 248 247 247 246 245 245 245 244 240 235 233 233 234 234 233 231 228 226 224 221 220 222 221 217 216 216 216 219 225 229 231 229 228 231 232 231 233 235 235 236 237 238 241 241 239 238 239 241 242 243 244 246 247 247 245 243 240 239 242
265 266 267 266 267 267 268 267 266 266 268 267 267 267 264 261 260 261 261 259 256 253 251 250 250 250 250 249 249 249 247 246 246 244 241 236 232 232 234 235 235 234 231 228 226 224 222 223 225 222 218 217 218 219 222 227 231 231 229 232 234 234 234 235 236 236 235 236 238 240 241 241 241 242 244 245 247 248 248 248 247 245 241 238 239
263 263 263 262 263 264 265 265 264 263 263 263 264 264 264 262 260 261 262 262 260 257 253 251 249 249 249 250 250 250 249 248 247 245 243 239 234 233 235 236 237 237 235 232 229 227 224 223 225 226 223 219 218 219 220 223 229 233 233 233 237 239 238 237 238 238 237 235 236 238 240 242 243 245 246 247 249 249 248 249 248 247 245 243 243
Height
10906 10905 10904 10904 10904 10905 10905 10906 10905 10905 10905 10905 10904 10902 10901 10900 10899 10897 10896 10896 10894 10894 10893 10892 10892 10891 10890 10889 10888 10889 10888 10887 10886 10883 10880 10878 10876 10873 10872 10871 10870 10867 10865 10863 10862 10859 10856 10853 10850 10849 10849 10848 10846 10844 10842 10840 10839 10837 10836 10834 10833 10832 10831 10829 10828 10827 10825 10825 10823 10822 10820 10820 10821 10821 10820 10819 10819 10820 10820 10820 10821 10822 10822 10822 10823
10901 10900 10899 10898 10898 10899 10900 10901 10900 10900 10900 10900 10899 10897 10896 10895 10893 10892 10891 10890 10889 10889 10888 10887 10887 10886 10884 10883 10883 10883 10883 10882 10881 10879 10875 10873 10871 10869 10867 10866 10865 10863 10861 10859 10857 10855 10852 10848 10846 10845 10845 10843 10841 10839 10838 10836 10835 10833 10832 10830 10830 10829 10827 10826 10825 10823 10822 10822 10821 10819 10817 10817 10818 10818 10818 10817 10817 10817 10817 10818 10818 10819 10820 10820 10821
10895 10894 10893 10893 10893 10894 10895 10895 10895 10895 10895 10895 10894 10892 10891 10890 10888 10887 10885 10885 10885 10884 10883 10882 10882 10881 10879 10877 10876 10877 10877 10876 10875 10874 10871 10868 10865 10863 10861 10861 10860 10859 10856 10854 10852 10850 10847 10844 10841 10840 10840 10839 10837 10835 10833 10832 10831 10829 10828 10826 10826 10825 10824 10823 10821 10820 10819 10818 10818 10816 10815 10814 10816 10816 10815 10815 10815 10815 10815 10815 10816 10817 10817 10818 10818
10890 10889 10888 10887 10887 10888 10889 10890 10890 10890 10890 10890 10889 10887 10885 10884 10883 10881 10880 10879 10880 10880 10879 10877 10876 10875 10874 10871 10870 10870 10870 10869 10868 10867 10866 10863 10860 10857 10856 10855 10854 10853 10852 10850 10847 10846 10843 10839 10837 10836 10835 10834 10833 10831 10829 10828 10827 10825 10824 10822 10822 10821 10820 10819 10818 10817 10816 10815 10815 10814 10812 10812 10813 10813 10813 10813 10812 10812 10812 10813 10813 10814 10815 10816 10816
10884 10883 10882 10882 10883 10883 10884 10884 10884 10884 10884 10884 10883 10881 10880 10879 10878 10876 10874 10874 10874 10874 10874 10872 10871 10870 10868 10866 10865 10864 10864 10862 10861 10860 10860 10858 10854 10852 10850 10849 10849 10848 10847 10845 10843 10841 10839 10835 10832 10831 10830 10830 10829 10827 10826 10824 10823 10821 10820 10819 10818 10817 10817 10816 10814 10813 10812 10812 10812 10811 10810 10809 10810 10810 10810 10810 10810 10810 10810 10810 10811 10812 10813 10813 10814
10877 10877 10876 10877 10879 10879 10878 10878 10878 10878 10877 10877 10877 10876 10875 10874 10873 10870 10869 10869 10868 10868 10868 10867 10866 10864 10863 10861 10859 10857 10857 10856 10854 10853 10852 10851 10849 10846 10844 10843 10843 10843 10842 10840 10838 10836 10834 10831 10828 10826 10826 10825 10824 10823 10822 10820 10819 10818 10817 10816 10815 10814 10814 10812 10811 10810 10809 10809 10809 10808 10808 10807 10807 10808 10808 10808 10808 10807 10807 10808 10808 10809 10810 10811 10812
10871 10871 10871 10874 10875 10873 10871 10871 10871 10871 10871 10871 10871 10870 10870 10869 10867 10865 10864 10864 10863 10862 10862 10861 10860 10858 10857 10855 10853 10851 10850 10849 10847 10846 10846 10844 10843 10841 10839 10837 10837 10837 10836 10835 10833 10831 10829 10826 10824 10822 10821 10820 10819 10818 10817 10816 10815 10814 10813 10813 10812 10811 10811 10809 10808 10808 10807 10806 10806 10806 10805 10804 10804 10805 10805 10806 10805 10805 10805 10806 10806 10806 10808 10809 10810
10866 10866 10866 10870 10870 10867 10865 10864 10864 10864 10864 10865 10865 10864 10863 10863 10861 10860 10859 10859 10858 10857 10856 10855 10854 10853 10851 10849 10848 10846 10844 10843 10841 10840 10839 10838 10837 10835 10833 10832 10831 10831 10830 10829 10828 10826 10824 10821 10819 10817 10816 10816 10814 10814 10813 10812 10811 10810 10810 10809 10808 10808 10808 10806 10806 10805 10804 10803 10803 10803 10802 10802 10802 10802 10803 10803 10803 10803 10803 10803 10804 10804 10805 10806 10807
10859 10861 10863 10866 10864 10861 10859 10858 10857 10858 10859 10859 10859 10857 10857 10856 10854 10854 10854 10853 10853 10852 10851 10850 10849 10847 10846 10844 10843 10841 10839 10837 10836 10834 10833 10832 10831 10829 10828 10827 10825 10825 10825 10824 10823 10821 10819 10817 10814 10812 10812 10811 10810 10809 10808 10807 10806 10806 10806 10806 10805 10805 10805 10804 10803 10803 10802 10800 10800 10800 10800 10800 10800 10800 10800 10801 10801 10801 10801 10801 10802 10802 10803 10804 10806
10852 10854 10859 10861 10858 10854 10852 10851 10851 10852 10853 10853 10852 10851 10851 10849 10847 10847 10848 10848 10847 10846 10845 10845 10843 10842 10840 10838 10837 10835 10834 10832 10831 10829 10827 10825 10824 10823 10823 10821 10820 10819 10819 10819 10818 10816 10815 10812 10809 10808 10807 10806 10805 10804 10803 10803 10802 10802 10802 10802 10802 10802 10802 10801 10800 10800 10799 10798 10797 10798 10797 10798 10798 10798 10798 10798 10799 10799 10799 10799 10800 10800 10801 10802 10804
10844 10847 10851 10854 10852 10848 10846 10845 10845 10846 10848 10846 10845 10846 10845 10842 10840 10841 10842 10841 10841 10840 10839 10839 10837 10836 10834 10832 10831 10829 10828 10827 10825 10823 10820 10819 10818 10817 10817 10816 10815 10813 10812 10813 10813 10812 10810 10808 10805 10803 10803 10802 10800 10799 10799 10798 10797 10797 10798 10798 10798 10798 10798 10798 10797 10797 10796 10795 10795 10795 10795 10795 10795 10796 10796 10796 10796 10796 10797 10797 10798 10799 10799 10800 10802
10837 10839 10841 10844 10844 10843 10841 10840 10840 10841 10842 10839 10838 10840 10839 10836 10834 10835 10835 10834 10834 10833 10833 10832 10831 10829 10827 10826 10824 10822 10821 10821 10820 10817 10814 10813 10811 10810 10811 10810 10809 10808 10806 10806 10806 10807 10806 10803 10801 10798 10798 10798 10796 10795 10794 10794 10793 10793 10794 10794 10794 10794 10795 10794 10794 10794 10793 10793 10792 10792 10792 10793 10793 10793 10793 10793 10794 10794 10795 10795 10796 10797 10797 10798 10799
10830 10832 10833 10835 10835 10835 10835 10834 10835 10836 10835 10833 10832 10833 10833 10830 10828 10829 10828 10827 10826 10826 10826 10825 10824 10822 10820 10819 10817 10816 10815 10814 10813 10811 10808 10806 10804 10802 10803 10804 10803 10803 10801 10800 10800 10801 10801 10799 10796 10794 10794 10793 10792 10790 10790 10789 10789 10789 10790 10790 10790 10791 10791 10790 10791 10791 10790 10790 10790 10790 10790 10790 10790 10791 10791 10791 10791 10792 10792 10793 10794 10794 10795 10796 10797
10823 10824 10825 10827 10827 10827 10828 10828 10829 10829 10828 10828 10826 10825 10825 10824 10823 10823 10820 10819 10819 10819 10819 10818 10816 10815 10813 10812 10811 10810 10809 10808 10807 10804 10802 10799 10797 10796 10795 10796 10797 10797 10796 10795 10794 10794 10795 10794 10792 10789 10789 10789 10787 10786 10785 10785 10785 10785 10786 10786 10786 10787 10787 10787 10787 10787 10787 10787 10787 10787 10787 10787 10788 10788 10788 10789 10789 10790 10790 10791 10792 10792 10793 10794 10795
10816 10817 10818 10819 10820 10821 10822 10822 10823 10822 10821 10821 10820 10818 10818 10817 10817 10816 10814 10813 10812 10812 10812 10810 10809 10809 10807 10805 10804 10804 10803 10802 10801 10798 10795 10792 10791 10791 10789 10789 10789 10790 10790 10789 10789 10788 10788 10788 10787 10784 10784 10784 10783 10782 10781 10781 10781 10781 10782 10782 10782 10783 10783 10783 10783 10783 10784 10784 10784 10784 10784 10784 10785 10786 10786 10787 10787 10788 10788 10789 10789 10790 10791 10792 10793
10809 10809 10810 10811 10812 10814 10815 10816 10816 10816 10815 10813 10812 10812 10810 10809 10810 10809 10808 10806 10805 10805 10805 10803 10803 10803 10801 10799 10798 10798 10797 10796 10794 10791 10788 10786 10784 10784 10784 10782 10782 10783 10784 10784 10783 10782 10781 10782 10781 10779 10778 10779 10778 10777 10777 10776 10777 10777 10778 10778 10778 10779 10779 10780 10780 10780 10780 10781 10781 10781 10781 10781 10782 10783 10784 10784 10785 10786 10786 10787 10787 10788 10789 10790 10791
10801 10802 10802 10803 10805 10806 10808 10809 10809 10808 10808 10806 10805 10804 10803 10802 10802 10801 10801 10800 10798 10797 10797 10796 10796 10796 10795 10794 10793 10792 10791 10790 10787 10783 10781 10779 10777 10777 10777 10776 10775 10775 10777 10778 10778 10776 10775 10775 10775 10774 10773 10774 10774 10772 10772 10772 10773 10773 10773 10774 10774 10775 10775 10776 10776 10776 10776 10777 10778 10778 10778 10778 10779 10780 10782 10782 10782 10783 10784 10784 10785 10786 10787 10788 10789
10794 10793 10794 10794 10797 10799 10800 10801 10801 10801 10800 10799 10798 10796 10795 10795 10794 10793 10793 10792 10790 10789 10789 10788 10789 10788 10788 10788 10787 10786 10785 10784 10780 10776 10775 10772 10771 10770 10770 10770 10769 10769 10770 10771 10772 10771 10769 10768 10768 10769 10768 10769 10769 10768 10768 10768 10768 10768 10769 10769 10770 10771 10771 10772 10772 10773 10773 10774 10775 10775 10776 10776 10777 10778 10779 10780 10780 10781 10782 10783 10783 10784 10785 10786 10787
10786 10785 10785 10786 10789 10791 10792 10792 10792 10792 10792 10791 10790 10788 10789 10788 10786 10785 10785 10784 10783 10781 10780 10781 10781 10781 10782 10782 10781 10780 10779 10778 10774 10770 10769 10766 10765 10764 10764 10765 10764 10763 10763 10764 10766 10765 10764 10763 10763 10763 10763 10763 10764 10763 10763 10763 10764 10764 10764 10765 10766 10767 10767 10768 10769 10770 10770 10771 10772 10772 10773 10774 10774 10775 10776 10777 10779 10779 10780 10781 10782 10783 10783 10784 10785
10778 10778 10778 10779 10781 10782 10783 10783 10783 10783 10783 10783 10781 10779 10781 10781 10779 10778 10777 10776 10775 10774 10773 10772 10773 10774 10776 10777 10775 10774 10771 10772 10770 10766 10763 10760 10758 10758 10759 10760 10759 10758 10757 10756 10759 10760 10758 10758 10758 10757 10758 10758 10758 10758 10758 10759 10759 10759 10760 10761 10762 10763 10764 10764 10765 10766 10767 10768 10769 10769 10770 10771 10772 10773 10774 10775 10777 10778 10778 10779 10780 10781 10782 10783 10783
10770 10771 10772 10773 10773 10773 10773 10773 10773 10774 10773 10774 10773 10772 10772 10773 10771 10771 10769 10768 10768 10766 10765 10765 10765 10766 10769 10771 10771 10771 10768 10766 10763 10759 10757 10755 10753 10753 10754 10754 10753 10752 10751 10749 10751 10754 10753 10752 10753 10753 10753 10753 10753 10753 10754 10754 10755 10755 10755 10756 10758 10759 10760 10761 10762 10763 10764 10765 10765 10766 10767 10768 10769 10770 10771 10773 10775 10776 10777 10778 10779 10779 10780 10781 10782
10762 10764 10765 10766 10766 10765 10764 10763 10764 10764 10764 10764 10765 10765 10765 10765 10764 10763 10762 10761 10761 10760 10758 10757 10758 10759 10761 10763 10764 10766 10765 10761 10757 10752 10751 10750 10749 10749 10748 10748 10748 10747 10746 10744 10743 10747 10747 10747 10747 10747 10747 10748 10748 10749 10749 10750 10750 10750 10750 10752 10754 10755 10756 10758 10759 10760 10761 10762 10762 10763 10764 10765 10767 10768 10769 10770 10772 10774 10775 10776 10777 10778 10778 10779 10780
10754 10756 10757 10758 10758 10757 10755 10754 10754 10754 10754 10755 10757 10757 10757 10757 10757 10757 10756 10755 10755 10754 10752 10750 10751 10752 10753 10753 10754 10757 10758 10755 10752 10748 10747 10746 10746 10745 10743 10743 10742 10741 10741 10740 10738 10738 10740 10741 10741 10741 10742 10742 10743 10744 10744 10745 10745 10746 10746 10748 10749 10751 10752 10754 10756 10757 10758 10759 10759 10760 10761 10762 10764 10765 10766 10768 10770 10771 10773 10774 10775 10776 10776 10777 10778
10747 10748 10748 10749 10750 10749 10748 10746 10746 10745 10744 10745 10747 10748 10748 10748 10748 10748 10748 10747 10747 10746 10745 10744 10743 10744 10746 10746 10746 10749 10749 10747 10744 10743 10741 10740 10740 10740 10738 10737 10736 10735 10734 10734 10733 10732 10733 10735 10735 10735 10737 10737 10739 10739 10740 10740 10741 10741 10742 10744 10746 10747 10749 10751 10753 10754 10755 10756 10756 10757 10758 10759 10761 10762 10764 10765 10767 10769 10770 10772 10773 10774 10775 10776 10777
10739 10740 10739 10739 10740 10740 10740 10739 10738 10737 10737 10737 10738 10739 10739 10738 10738 10738 10738 10737 10737 10737 10737 10736 10736 10736 10738 10739 10739 10739 10739 10737 10735 10734 10734 10733 10734 10734 10732 10730 10729 10728 10728 10727 10727 10726 10727 10729 10729 10730 10731 10732 10734 10735 10735 10736 10736 10737 10738 10740 10742 10744 10745 10747 10749 10750 10751 10752 10753 10754 10755 10756 10758 10759 10761 10763 10765 10766 10768 10769 10771 10772 10773 10774 10775
10730 10731 10731 10730 10730 10730 10731 10732 10732 10731 10730 10730 10731 10731 10730 10729 10728 10729 10729 10729 10729 10729 10729 10728 10729 10729 10730 10732 10732 10731 10729 10727 10725 10726 10727 10726 10727 10728 10726 10724 10723 10722 10721 10720 10720 10721 10721 10723 10724 10725 10726 10727 10729 10730 10731 10732 10732 10733 10735 10737 10739 10740 10742 10744 10746 10747 10748 10749 10750 10751 10752 10753 10755 10756 10758 10760 10762 10763 10765 10767 10768 10770 10771 10772 10773
10721 10721 10721 10722 10722 10722 10723 10724 10725 10724 10724 10724 10724 10723 10722 10721 10720 10720 10721 10721 10721 10720 10720 10721 10722 10722 10723 10724 10724 10723 10721 10718 10717 10718 10720 10720 10720 10721 10720 10718 10717 10716 10715 10714 10714 10715 10715 10717 10718 10720 10721 10722 10723 10725 10726 10727 10728 10729 10731 10734 10736 10737 10739 10741 10742 10744 10745 10745 10746 10748 10749 10751 10752 10753 10755 10757 10759 10761 10762 10764 10765 10766 10768 10769 10771
10712 10711 10711 10712 10714 10715 10716 10717 10717 10717 10717 10717 10717 10715 10714 10713 10713 10712 10712 10713 10713 10712 10712 10713 10714 10715 10716 10717 10717 10716 10714 10711 10710 10711 10712 10713 10713 10713 10713 10711 10711 10710 10709 10708 10709 10709 10710 10712 10713 10714 10716 10717 10718 10720 10722 10723 10724 10725 10727 10730 10732 10734 10736 10738 10739 10740 10741 10742 10743 10745 10746 10748 10749 10751 10752 10754 10755 10757 10759 10761 10762 10763 10765 10766 10768
10703 10702 10703 10705 10706 10708 10708 10709 10710 10709 10709 10709 10708 10708 10706 10706 10705 10705 10705 10705 10705 10705 10705 10705 10706 10708 10709 10710 10711 10708 10706 10705 10705 10705 10706 10706 10706 10706 10705 10705 10705 10705 10704 10703 10703 10704 10705 10707 10708 10709 10711 10712 10714 10716 10717 10719 10720 10721 10723 10726 10729 10731 10732 10734 10736 10737 10739 10740 10740 10741 10743 10745 10746 10748 10749 10751 10752 10754 10755 10757 10759 10760 10762 10764 10766
10694 10695 10697 10698 10699 10700 10700 10701 10701 10701 10701 10701 10700 10699 10698 10698 10698 10698 10697 10697 10697 10698 10698 10698 10698 10699 10701 10704 10706 10704 10700 10699 10700 10700 10700 10700 10699 10700 10700 10700 10700 10700 10700 10699 10699 10699 10700 10702 10703 10704 10707 10709 10710 10712 10714 10715 10717 10718 10720 10722 10725 10727 10730 10732 10733 10735 10736 10738 10738 10739 10740 10741 10743 10745 10746 10748 10749 10750 10751 10753 10755 10757 10759 10761 10763
10686 10688 10690 10691 10691 10691 10691 10691 10692 10692 10692 10692 10692 10691 10690 10690 10690 10690 10689 10689 10690 10691 10691 10691 10690 10691 10693 10695 10698 10698 10695 10694 10695 10694 10696 10698 10696 10695 10697 10697 10696 10695 10695 10695 10695 10696 10696 10697 10699 10700 10702 10705 10707 10709 10710 10712 10714 10715 10717 10718 10721 10724 10727 10729 10731 10732 10734 10735 10736 10736 10737 10738 10740 10742 10743 10745 10746 10747 10748 10750 10752 10754 10756 10758 10760
10679 10680 10682 10682 10683 10683 10683 10683 10683 10683 10683 10684 10684 10684 10683 10682 10682 10682 10682 10682 10683 10683 10684 10684 10683 10683 10684 10685 10686 10686 10685 10686 10688 10689 10690 10693 10692 10690 10691 10693 10693 10691 10691 10692 10693 10692 10692 10694 10695 10696 10698 10701 10704 10706 10707 10709 10711 10712 10714 10716 10718 10721 10723 10725 10728 10730 10731 10732 10733 10733 10734 10735 10737 10739 10741 10742 10744 10745 10746 10747 10749 10751 10752 10754 10757
10670 10671 10672 10673 10673 10674 10675 10675 10675 10675 10675 10676 10676 10675 10675 10674 10674 10674 10674 10674 10675 10676 10676 10676 10676 10676 10676 10676 10676 10675 10676 10678 10680 10682 10683 10685 10686 10685 10685 10688 10689 10687 10688 10690 10691 10690 10690 10691 10692 10693 10695 10697 10701 10703 10704 10705 10707 10710 10711 10713 10715 10718 10720 10722 10724 10726 10728 10729 10729 10730 10731 10732 10734 10736 10738 10740 10741 10743 10744 10745 10746 10747 10749 10751 10753
10662 10662 10663 10663 10664 10665 10666 10667 10668 10668 10668 10668 10668 10667 10666 10666 10666 10667 10666 10666 10668 10669 10669 10669 10668 10668 10668 10667 10667 10667 10668 10670 10673 10675 10676 10677 10679 10680 10680 10682 10683 10684 10686 10687 10688 10688 10689 10690 10690 10690 10692 10694 10697 10700 10701 10703 10705 10707 10709 10710 10712 10715 10717 10718 10721 10723 10725 10726 10726 10727 10728 10730 10732 10734 10735 10737 10739 10740 10742 10742 10743 10744 10746 10748 10749
10653 10653 10654 10655 10655 10656 10657 10659 10660 10660 10660 10660 10660 10659 10659 10658 10658 10659 10659 10659 10660 10662 10662 10661 10661 10661 10661 10660 10660 10661 10661 10664 10667 10669 10670 10671 10674 10675 10675 10676 10679 10681 10683 10684 10686 10687 10688 10689 10688 10687 10689 10691 10694 10696 10699 10700 10702 10704 10706 10707 10709 10712 10714 10716 10718 10720 10722 10723 10724 10725 10726 10728 10729 10731 10733 10735 10736 10738 10739 10740 10740 10741 10743 10744 10746
10645 10645 10646 10647 10647 10648 10649 10650 10651 10652 10652 10652 10652 10652 10651 10651 10651 10651 10651 10652 10652 10654 10654 10654 10654 10654 10654 10654 10655 10655 10656 10658 10661 10663 10664 10666 10668 10670 10671 10672 10675 10677 10679 10682 10684 10685 10685 10686 10685 10684 10686 10688 10690 10693 10696 10697 10698 10701 10703 10704 10707 10709 10712 10713 10715 10717 10719 10720 10722 10723 10724 10725 10727 10728 10730 10732 10734 10735 10736 10737 10738 10739 10740 10741 10743
10638 10638 10638 10639 10641 10642 10642 10642 10642 10643 10643 10644 10645 10645 10645 10644 10644 10644 10645 10645 10646 10647 10647 10648 10648 10649 10649 10649 10650 10651 10651 10653 10655 10657 10659 10661 10663 10665 10667 10669 10671 10672 10675 10679 10681 10681 10681 10682 10682 10682 10684 10685 10687 10690 10692 10694 10695 10697 10699 10702 10704 10706 10708 10711 10712 10714 10715 10716 10718 10720 10721 10723 10725 10726 10728 10730 10732 10733 10734 10734 10735 10736 10738 10739 10741
10631 10631 10631 10631 10633 10635 10635 10634 10634 10634 10635 10636 10637 10638 10638 10638 10638 10638 10638 10639 10640 10640 10641 10642 10643 10643 10644 10645 10645 10646 10647 10648 10650 10652 10654 10657 10659 10661 10663 10667 10668 10669 10672 10675 10676 10677 10678 10678 10678 10680 10681 10683 10685 10686 10688 10690 10692 10694 10696 10699 10701 10703 10705 10706 10708 10710 10711 10712 10714 10716 10718 10720 10722 10724 10725 10727 10729 10730 10731 10731 10732 10733 10734 10736 10738
10623 10624 10625 10624 10625 10627 10629 10628 10628 10628 10628 10629 10630 10631 10632 10632 10632 10632 10633 10634 10634 10635 10636 10637 10638 10639 10640 10640 10641 10641 10642 10644 10645 10647 10649 10652 10654 10656 10660 10664 10665 10665 10667 10670 10672 10673 10674 10674 10675 10677 10679 10680 10682 10683 10685 10687 10689 10691 10693 10696 10698 10699 10700 10702 10704 10706 10707 10709 10711 10713 10715 10716 10719 10721 10723 10724 10726 10727 10728 10729 10729 10730 10731 10732 10734
10616 10618 10619 10619 10619 10620 10622 10623 10623 10623 10623 10623 10624 10625 10626 10627 10627 10627 10628 10629 10630 10631 10631 10632 10633 10634 10636 10636 10637 10638 10639 10640 10641 10643 10645 10647 10649 10652 10655 10658 10659 10660 10662 10664 10666 10668 10669 10670 10672 10675 10676 10677 10679 10680 10682 10684 10686 10687 10690 10692 10693 10695 10696 10698 10700 10701 10703 10706 10707 10709 10711 10713 10715 10718 10719 10721 10723 10724 10725 10726 10726 10727 10728 10729 10730
10611 10612 10613 10613 10613 10615 10616 10617 10617 10617 10618 10618 10619 10620 10621 10622 10623 10623 10624 10625 10626 10627 10627 10628 10629 10630 10632 10633 10634 10634 10635 10637 10638 10639 10641 10643 10645 10647 10650 10652 10654 10655 10656 10658 10661 10663 10664 10665 10668 10670 10672 10673 10675 10677 10679 10680 10682 10684 10686 10687 10688 10690 10693 10694 10696 10697 10699 10702 10703 10705 10707 10710 10712 10713 10715 10717 10719 10720 10722 10722 10723 10724 10725 10726 10726
10606 10607 10608 10609 10609 10610 10611 10612 10612 10613 10613 10614 10615 10616 10617 10618 10618 10619 10620 10621 10623 10624 10624 10625 10626 10627 10628 10629 10630 10631 10632 10633 10635 10636 10637 10639 10641 10642 10645 10647 10649 10650 10651 10653 10656 10658 10659 10661 10664 10665 10667 10669 10671 10673 10675 10676 10678 10680 10682 10683 10684 10686 10688 10690 10691 10693 10695 10697 10699 10702 10704 10706 10708 10710 10711 10713 10714 10716 10718 10718 10719 10720 10721 10722 10723
10602 10603 10604 10605 10605 10605 10606 10607 10608 10608 10609 10610 10611 10612 10613 10614 10615 10616 10617 10618 10619 10620 10621 10622 10622 10624 10625 10626 10627 10628 10629 10630 10631 10632 10634 10635 10636 10638 10640 10642 10644 10645 10646 10648 10650 10652 10654 10656 10659 10660 10662 10663 10666 10668 10670 10672 10674 10675 10677 10679 10680 10682 10683 10684 10687 10689 10691 10693 10695 10699 10701 10703 10705 10707 10708 10709 10710 10712 10714 10715 10716 10717 10718 10719 10720
10598 10600 10601 10602 10602 10601 10601 10602 10603 10604 10606 10607 10608 10609 10610 10610 10611 10613 10614 10615 10616 10617 10618 10618 10619 10620 10622 10623 10624 10625 10626 10627 10628 10629 10630 10631 10632 10633 10635 10637 10639 10640 10642 10643 10645 10647 10650 10652 10654 10656 10657 10659 10661 10663 10665 10667 10668 10670 10673 10675 10676 10678 10679 10680 10682 10684 10687 10689 10692 10694 10697 10699 10702 10703 10704 10705 10707 10709 10710 10711 10713 10714 10715 10715 10717
10595 10597 10598 10598 10598 10598 10598 10598 10600 10601 10602 10603 10605 10606 10606 10607 10608 10609 10610 10611 10612 10613 10614 10615 10616 10617 10618 10620 10621 10622 10623 10624 10625 10625 10626 10627 10628 10629 10631 10632 10634 10636 10637 10639 10640 10643 10645 10647 10650 10652 10654 10655 10657 10658 10660 10661 10663 10666 10668 10670 10672 10674 10675 10676 10678 10680 10682 10685 10688 10691 10693 10695 10698 10700 10701 10702 10703 10704 10706 10708 10709 10710 10711 10712 10713
10592 10594 10594 10595 10595 10594 10594 10595 10596 10598 10598 10600 10601 10602 10602 10603 10604 10605 10606 10607 10608 10610 10611 10612 10613 10614 10615 10616 10618 10619 10620 10621 10621 10622 10622 10623 10624 10625 10626 10628 10630 10631 10633 10634 10636 10638 10640 10642 10645 10647 10649 10651 10653 10654 10655 10656 10658 10661 10663 10665 10667 10669 10671 10673 10675 10676 10678 10680 10684 10687 10688 10690 10693 10694 10696 10697 10698 10700 10701 10703 10705 10706 10707 10708 10709
10588 10590 10591 10591 10591 10591 10591 10591 10593 10594 10595 10596 10597 10598 10599 10600 10601 10602 10603 10604 10605 10606 10607 10609 10610 10611 10612 10613 10614 10615 10616 10617 10618 10618 10619 10619 10620 10621 10622 10623 10625 10627 10629 10630 10631 10633 10635 10637 10639 10642 10644 10647 10648 10649 10650 10651 10654 10657 10658 10660 10662 10665 10668 10670 10671 10673 10675 10676 10679 10681 10683 10686 10688 10689 10690 10692 10694 10695 10697 10699 10701 10703 10704 10705 10706
10583 10585 10587 10587 10588 10588 10587 10588 10589 10590 10592 10593 10593 10594 10595 10596 10597 10598 10599 10600 10601 10602 10604 10605 10606 10607 10608 10609 10610 10611 10613 10614 10614 10615 10615 10615 10616 10617 10618 10619 10621 10622 10624 10626 10627 10628 10630 10631 10634 10636 10639 10642 10644 10645 10646 10647 10650 10652 10654 10655 10658 10661 10664 10666 10668 10669 10671 10672 10674 10677 10679 10681 10683 10684 10686 10688 10690 10691 10693 10695 10697 10699 10700 10702 10703
10578 10580 10582 10584 10584 10583 10584 10585 10586 10587 10588 10589 10590 10590 10591 10593 10594 10594 10595 10596 10597 10599 10600 10601 10603 10604 10605 10606 10606 10607 10609 10609 10610 10611 10611 10611 10612 10613 10614 10615 10616 10618 10619 10621 10623 10624 10625 10626 10628 10631 10634 10637 10639 10641 10642 10643 10645 10647 10649 10651 10653 10657 10659 10661 10664 10666 10667 10668 10670 10671 10674 10677 10678 10681 10682 10683 10686 10688 10689 10691 10693 10694 10696 10698 10699
10573 10575 10578 10579 10579 10579 10580 10581 10582 10583 10585 10586 10586 10587 10588 10589 10590 10590 10591 10592 10593 10594 10596 10597 10598 10599 10601 10602 10603 10603 10604 10605 10606 10607 10607 10607 10608 10609 10610 10610 10612 10613 10614 10616 10618 10619 10620 10621 10623 10625 10628 10632 10635 10637 10639 10640 10641 10643 10645 10647 10649 10652 10655 10657 10659 10661 10663 10664 10665 10667 10669 10671 10674 10676 10677 10679 10681 10683 10685 10687 10689 10690 10691 10693 10694
10568 10570 10572 10574 10574 10574 10575 10576 10577 10579 10581 10582 10583 10583 10584 10585 10586 10586 10587 10588 10589 10590 10591 10593 10594 10595 10596 10597 10598 10599 10600 10601 10602 10602 10603 10604 10604 10605 10606 10606 10607 10608 10609 10611 10613 10614 10616 10617 10618 10620 10623 10626 10629 10632 10635 10636 10637 10638 10641 10643 10644 10647 10649 10652 10654 10656 10658 10660 10661 10662 10664 10666 10668 10670 10672 10674 10675 10678 10680 10682 10684 10686 10687 10688 10690